Dewpoint
39 38 38 36 36 37 36 35 35 34 33 33 34 34 30 30 30 30 31 33 29 27 27 26 26 26 26 27 27 28 30 32 29 27 29 26 24 25 25 27 30 40 41
40 39 38 37 35 33 35 36 34 33 33 32 32 27 27 26 27 26 27 27 26 25 25 25 24 21 23 23 24 24 26 26 26 24 25 24 23 24 25 25 25 24 33
38 38 38 38 36 33 33 33 34 33 32 34 27 25 25 27 26 26 26 25 24 24 24 24 23 23 21 21 22 23 23 23 26 24 23 24 24 24 24 26 26 28 26
31 35 36 36 38 34 34 35 36 36 37 34 27 26 28 26 26 25 24 23 23 23 25 24 23 21 20 21 21 23 23 24 25 23 22 22 22 23 25 25 24 26 25
26 28 36 37 37 36 37 36 36 37 37 28 26 26 27 26 24 25 24 23 23 23 23 22 21 21 22 21 21 23 28 26 25 23 22 21 20 20 21 24 23 23 23
26 34 36 36 37 37 37 38 37 36 27 28 26 26 25 24 29 28 27 24 23 22 21 20 20 21 21 23 24 25 24 27 25 26 23 20 19 20 21 21 21 21 20
29 33 34 37 35 36 37 37 36 33 32 25 25 26 26 25 30 30 29 25 24 22 21 21 20 18 22 22 24 25 24 25 25 25 25 24 22 22 22 21 21 21 22
30 31 32 34 33 34 35 34 35 35 26 25 27 26 25 25 29 29 28 25 23 23 22 22 20 20 21 21 23 26 24 25 24 23 23 25 25 25 24 24 23 23 27
30 30 31 32 32 33 34 33 33 28 26 27 26 26 26 25 24 26 26 23 22 21 21 20 20 22 24 26 24 24 23 22 22 25 28 27 29 29 29 29 26 25 23
31 31 32 32 33 32 32 32 27 25 27 26 25 24 23 22 22 22 21 22 17 20 20 19 21 21 25 27 26 25 22 21 21 22 24 23 23 23 24 25 23 23 22
30 31 31 29 28 28 25 24 26 27 25 23 21 23 22 21 20 20 20 20 20 20 19 19 21 24 24 24 26 25 24 26 25 25 23 22 22 23 23 24 25 24 23
29 29 27 27 27 24 23 25 25 23 23 21 10 16 20 21 19 20 20 19 20 20 20 21 23 23 25 25 25 26 25 26 25 23 22 22 23 24 26 28 29 29 27
29 27 26 27 27 26 22 23 23 22 20 20 21 14 18 20 18 20 21 20 21 21 21 21 20 21 22 23 23 25 24 23 23 21 22 23 25 27 29 29 30 30 31
27 27 27 27 27 26 23 24 23 19 18 22 19 17 14 16 16 17 19 16 21 21 20 20 20 20 20 21 21 22 22 22 22 21 22 24 26 26 26 28 27 27 29
28 27 27 26 26 26 22 23 24 21 20 19 18 16 4 3 14 23 20 18 20 18 14 17 17 16 16 16 17 18 20 21 21 21 21 22 23 25 25 26 27 27 25
28 27 27 25 23 24 24 24 26 25 23 24 22 14 11 18 20 21 19 17 15 17 13 13 13 13 14 15 14 15 16 19 19 20 20 20 21 22 23 24 24 21 22
30 28 27 26 25 23 21 22 16 22 26 26 26 23 22 19 20 19 19 16 14 14 7 9 9 12 13 14 14 15 14 16 18 18 18 18 19 21 21 20 18 17 20
29 29 26 27 23 23 16 22 25 17 13 15 21 25 23 19 18 18 18 14 9 10 8 6 11 13 13 14 13 13 14 13 12 14 15 15 16 19 18 19 18 15 19
32 29 23 20 20 21 17 20 23 22 20 18 15 18 17 18 18 19 18 5 3 4 7 8 6 13 12 12 11 10 8 9 8 9 11 12 13 16 16 18 17 13 13
30 27 20 19 22 24 20 19 23 23 22 21 17 12 11 10 2 -0 -3 -6 -5 2 1 6 6 8 6 9 8 7 7 5 6 7 7 8 10 14 15 16 16 16 14
29 26 25 25 25 25 20 21 21 23 22 18 16 10 9 8 5 3 3 -1 -0 1 -2 3 -0 -2 1 3 11 7 6 -0 5 6 6 7 7 9 13 14 13 12 13
27 25 25 26 23 17 21 25 21 19 17 21 20 17 10 1 3 9 11 5 3 3 3 1 2 2 2 4 4 1 4 2 3 4 4 5 7 10 9 7 5 4 6
22 16 16 19 20 16 13 17 22 20 20 21 21 15 9 9 10 11 11 8 2 3 -0 -1 -4 -0 -2 -2 -2 3 5 6 5 4 3 3 6 7 3 1 2 3 1
18 14 16 17 10 11 8 15 25 21 23 21 13 10 14 16 9 8 7 5 -2 -0 -7 -3 0 2 1 -2 -3 0 6 5 6 7 4 4 5 7 2 3 1 0 -2
17 15 15 16 16 14 11 13 18 26 23 20 14 7 11 9 11 8 9 3 4 0 3 -2 -1 0 1 0 2 4 2 5 5 6 5 6 5 5 3 3 0 1 -3
28 27 22 20 19 16 15 15 18 22 19 24 22 18 13 11 11 8 9 1 3 4 1 -3 -1 2 0 2 4 5 2 5 5 5 5 7 5 3 3 2 2 2 2
Lifted_Index
8 8 8 8 8 8 7 7 7 8 8 8 8 7 6 6 6 6 5 5 5 5 5 5 5 6 6 6 7 7 7 6 6 6 6 6 6 5 5 5 4 4 4
9 8 8 8 8 8 7 7 8 8 8 7 6 6 5 5 6 6 5 5 5 5 5 6 6 6 7 7 7 8 8 7 7 6 6 7 6 6 5 5 5 5 5
10 10 10 9 9 8 7 7 8 7 7 6 5 5 5 5 6 5 5 5 5 5 6 6 7 7 8 8 8 8 8 8 7 7 7 7 7 7 6 6 6 6 6
11 11 11 10 9 8 8 7 7 6 5 5 4 4 4 5 5 5 5 5 5 6 6 7 8 8 9 9 8 8 8 7 7 7 6 7 7 8 8 7 7 7 7
12 12 11 10 9 9 8 7 6 5 4 4 4 4 4 5 5 5 5 6 6 7 7 8 8 9 9 9 8 8 8 7 7 7 7 7 7 8 8 9 8 8 8
12 12 11 10 10 9 8 6 5 4 4 3 3 4 4 5 5 6 6 7 7 8 8 9 9 9 9 9 8 7 7 7 7 7 7 7 7 8 9 9 9 9 9
12 11 10 10 9 8 7 5 4 3 3 3 3 4 4 5 6 7 7 8 8 9 9 9 10 10 9 9 8 7 7 7 7 7 7 7 7 8 9 10 10 10 10
11 11 10 9 9 7 6 4 3 3 3 4 4 4 5 6 6 8 8 9 9 9 10 10 10 10 10 9 8 7 7 7 7 7 7 8 8 8 10 11 11 11 10
10 10 10 9 7 6 5 4 3 4 4 4 5 5 5 6 7 9 9 9 9 10 10 10 10 10 10 9 8 8 7 7 7 7 7 8 8 9 10 11 11 11 11
10 10 9 8 6 5 4 4 4 4 5 5 5 6 6 7 8 10 10 10 10 10 10 11 11 10 10 9 8 8 8 8 8 8 8 8 9 10 11 12 12 11 11
9 9 8 7 6 5 4 4 4 5 6 6 6 6 7 8 9 10 11 11 11 10 10 11 11 11 10 10 9 9 9 9 9 9 9 10 10 11 12 12 12 12 11
9 8 7 6 6 5 5 5 5 6 6 6 6 7 7 8 10 10 11 12 12 11 11 11 12 11 11 11 10 10 10 10 10 10 11 11 11 12 12 12 11 11 11
8 7 7 6 6 5 5 5 6 6 6 7 7 7 8 9 10 10 11 12 12 12 12 12 12 12 12 12 11 11 11 11 11 11 12 12 12 12 12 11 11 11 10
7 6 6 6 6 6 6 6 6 6 7 7 7 7 8 9 10 11 11 12 12 12 12 13 13 13 13 13 13 13 13 13 13 12 12 12 12 12 11 11 11 10 10
6 6 6 6 6 6 6 6 6 7 7 7 7 7 8 9 10 11 12 12 13 13 13 12 13 13 13 13 13 13 13 13 13 13 13 12 12 12 11 11 11 11 11
6 6 6 6 6 6 6 6 6 7 7 8 8 8 9 10 10 11 12 12 13 13 13 12 12 13 13 13 13 13 14 14 14 14 13 13 12 12 11 11 11 11 11
6 6 6 6 6 6 6 6 6 7 7 8 8 9 9 10 10 11 12 12 12 13 13 12 12 13 13 14 14 14 14 14 14 14 14 13 13 12 12 11 11 11 11
6 6 6 6 6 6 6 6 6 6 7 7 8 9 9 10 10 11 11 11 11 12 12 12 13 13 13 14 14 14 14 14 14 14 14 14 13 13 12 11 11 11 10
6 6 6 6 6 6 6 7 6 6 6 6 7 8 9 10 10 11 11 11 10 11 11 12 13 13 14 14 14 15 15 15 15 14 14 14 14 13 13 12 11 11 10
6 6 6 6 6 6 7 7 7 6 6 6 7 7 8 9 9 10 10 10 10 11 11 12 13 13 14 14 14 15 15 15 15 15 14 14 14 14 13 13 12 11 11
5 5 6 6 7 7 7 7 7 7 6 6 7 7 8 8 9 9 10 10 10 11 11 11 12 13 14 14 14 14 14 14 15 15 15 15 14 14 14 13 13 12 12
5 5 6 6 7 7 7 7 7 7 6 6 7 7 8 8 8 9 9 9 10 10 11 12 12 13 13 13 14 14 14 14 14 14 15 15 15 14 14 14 13 13 13
4 5 6 6 6 6 7 7 7 7 7 6 6 7 7 8 8 8 9 9 9 10 11 12 12 12 13 13 14 14 13 14 14 14 14 14 14 14 14 14 14 13 13
4 5 5 6 6 6 6 7 7 7 7 7 6 7 7 7 7 8 8 8 9 9 10 11 11 12 12 12 13 13 13 14 14 15 15 14 14 14 14 14 14 13 13
4 4 5 5 5 5 5 6 7 7 7 6 6 6 6 7 7 7 7 8 8 8 9 10 10 11 11 11 11 12 12 13 14 14 14 14 14 14 14 14 14 14 13
4 4 5 5 5 4 5 6 6 7 7 6 6 6 6 6 7 7 7 7 8 8 8 9 10 10 11 11 11 11 11 12 13 13 13 13 14 14 14 14 14 14 13